Info: TELAH HADIR TOURNAMENT DI MOBILE BROWSER ANDA DAN MAINKAN SEKARANG JUGA -MAINTENANCE RUTIN PUKUL 10.00 WIB - SELESAI!! BRI BCA BNI CIMBNIAGA MANDIRI PERMATA ONLINE.. - HARAP PERHATIKAN MENU DEPOSIT SEBELUM MELAKUKAN TRANSFER..Akses selalu melalui website resmi kami http://poker88.city
REGISTER JACKPOT DEPOSIT REFERRAL DOWNLOAD PROMOSI CONTACT VIP
JACKPOT



   

Jackpot Winner Ceme

Jackpot hanya dapat di beli di awal sebelum periode tersebut berjalan dan jika berhasil maka anda dapat melihat di sisi kiri bawah atau kiri atas akan terdapat notifikasi bahwa jackpot anda berhasil di beli.

Jika anda membeli jackpot di tengah permainan maka pembelian jackpot akan berlaku untuk periode selanjutnya.

Jackpot dilihat dari gabungan kartu pemain dengan kartu bandar. Bandar harus membeli jackpot sebanyak jumlah player yang sedang duduk. Sebagai contoh bila terdapat 3 pemain duduk bermain, dan bandar memutuskan untuk membeli jackpot Rp 1.000, maka pada periode tersebut bandar akan membeli jackpot sebanyak 3xRp1.000 = Rp3.000.

Jackpot bukanlah suatu keharusan untuk dibeli, namun kami memberikan suatu fitur tambahan untuk member tercinta dari www.pk88online.net.

Terdapat tiga pilihan harga jackpot yang bisa anda beli yaitu :100,500 dan 1000 rupiah.

Hadiah dari Multi jackpot system www.pk88online.net

  1. Murni Kecil x 50 harga jackpot yang anda beli.
      (contoH:anda membeli 1000 maka:1000 X 50 = 50.000)
  2. Murni Besar x 50 harga jackpot yang anda beli
      (contoH:anda membeli 1000 maka:1000 X 50 = 50.000)
  3. BALAK x 200 harga jackpot yang anda beli
      (contoH:anda membeli 1000 maka:1000 X 200 = 200.000)
  4. ENAM DEWA x 6666 harga jackpot yang anda beli
      (contoH:anda membeli 1000 maka:1000 X 6666 = 6.666.000)

Demikian adalah penjelasan dari Multi Jackpot www.pk88online.net terima kasih dan selamat bermain salam hoki dari kami


Jackpot Winner

TOP ENAM DEWA
No. Tanggal Nama Price Win
1 21/03 07:31 LEMANLOTOK murni enam 6,666,000
2 21/03 07:31 WIN333R murni enam 6,666,000
3 21/03 07:23 HENDRA2323 murni enam 6,666,000
4 21/03 07:01 MAHARANY05 murni enam 6,666,000
5 21/03 07:01 RUD22 murni enam 6,666,000
TOP BALAK
No. Tanggal Nama Price Win
1 21/03 08:21 IONZK9C05Z balak 20,000
2 21/03 08:21 EBON988 balak 200,000
3 21/03 08:20 LONTEKU25 balak 200,000
4 21/03 08:20 HAN7338 balak 200,000
5 21/03 08:19 FDB20892 balak 100,000
LATEST JACKPOT
No. Tanggal Nama Price Win
1 21/03 08:22 K0PROZZ99 murni kecil 5,000
2 21/03 08:22 OJODUMEH11 murni kecil 50,000
3 21/03 08:22 BUNTOK_212 murni kecil 50,000
4 21/03 08:22 GLOD51 murni kecil 50,000
5 21/03 08:22 BRIKNI2 murni kecil 50,000
6 21/03 08:22 QUEN76 murni kecil 50,000
7 21/03 08:22 CHENTIL66 murni kecil 50,000
8 21/03 08:22 TOTENG123 murni kecil 50,000
9 21/03 08:22 CASSIO murni kecil 5,000
10 21/03 08:22 WUUUOOOW murni kecil 50,000
11 21/03 08:22 789DANG murni kecil 50,000
12 21/03 08:21 IONZK9C05Z balak 20,000
13 21/03 08:21 EBON988 balak 200,000
14 21/03 08:21 VANZKA murni kecil 25,000
15 21/03 08:21 EAGGLE murni kecil 50,000
16 21/03 08:21 QILA30 murni besar 50,000
17 21/03 08:21 OCK12 murni kecil 25,000
18 21/03 08:20 LUKY23 murni kecil 25,000
19 21/03 08:20 TREK3L murni kecil 5,000
20 21/03 08:20 ABIB855 murni besar 25,000
21 21/03 08:20 LONTEKU25 balak 200,000
22 21/03 08:20 HAN7338 balak 200,000
23 21/03 08:20 MASMEN79 murni besar 50,000
24 21/03 08:20 BLUNYO84 murni besar 5,000
25 21/03 08:20 SEMART murni kecil 50,000
26 21/03 08:19 JOPATA murni besar 50,000
27 21/03 08:19 FDB20892 balak 100,000
28 21/03 08:19 BOSGALON28 murni kecil 50,000
29 21/03 08:19 PO22RGYZR5 murni kecil 50,000
30 21/03 08:19 SUTRISNA69 murni kecil 25,000
31 21/03 08:19 EBIT37 murni besar 5,000
32 21/03 08:19 BNI146 murni kecil 50,000
33 21/03 08:19 MIRZHA murni kecil 25,000
34 21/03 08:19 EDIRATNA murni besar 50,000
35 21/03 08:19 DONI73 murni besar 50,000
36 21/03 08:18 DONKING21 murni kecil 50,000
37 21/03 08:18 EBOX999 murni kecil 50,000
38 21/03 08:18 G6DMXR3CL4 balak 200,000
39 21/03 08:18 SEKALA70 balak 200,000
40 21/03 08:18 WARTEG125 murni besar 25,000
41 21/03 08:18 AAAALTTI11 murni kecil 50,000
42 21/03 08:18 SWALLOW03 balak 20,000
43 21/03 08:18 SAMSOEL46 balak 20,000
44 21/03 08:18 IIL777 murni kecil 50,000
45 21/03 08:18 DAVIDJKY murni kecil 25,000
46 21/03 08:18 MINIEGILUY murni kecil 25,000
47 21/03 08:18 ALEXALEX06 murni kecil 5,000
48 21/03 08:18 EVA1221 murni besar 50,000
49 21/03 08:18 BURON988 murni kecil 25,000
50 21/03 08:18 MNACAN murni kecil 50,000